Location: Aciu?a
(46.2833°N, 22.4500°E)
Time: 13:36:07
(UTC+00:00)

COSMO-SKYMED 1 - Pass Details

Date: 25 October 2021
Orbit: 621 x 623 km, 97.9° (Epoch: 07 December)

Event Time Altitude Azimuth Distance (km) Brightness Sun altitude
Rises 16:31:20 0° 15° (NNE) 2,916 5.8 -11.8°
Reaches altitude 10° 16:33:33 10° 18° (NNE) 2,004 4.9 -12.2°
Maximum altitude 16:37:53 69° 102° (ESE) 670 2.5 -12.9°
Drops below altitude 10° 16:42:12 10° 186° (S) 1,987 5.3 -13.7°
Sets 16:44:23 0° 189° (S) 2,888 6.2 -14.1°
